• Join FlightAware (Why Join?)
  • Login
  • US Flag GB Flag 
15:30 EDT


 

Airport Tracker/Info


-or-


 

Live Flight TrackerFlight Track Log ✈ N413QS ✈ 21-Apr-2013 ✈ KHPN - TBPB / BGI

Flight Track Log - Related Links

Times and Time Zones

All times are in EDT time to prevent confusion due to time zone crossing. See the N413QS flight status page for this flight to view local times or setup timezone preferences in your user account.

Time Position Orientation Groundspeed Altitude Reporting Facility
EDT Latitude Longitude Course Direction KTS MPH feet Rate Location/Type
13:41 41.0833 -73.7667 255° West 196 226 3,700  Level New York TRACON
13:42 41.0667 -73.8500 255° West 256 295 6,200 2,100 Climbing New York TRACON
13:43 40.9833 -73.8500 180° South 289 333 8,000 900 Climbing New York TRACON
13:44 40.9000 -73.8333 171° South 290 334 8,000 720 Level New York TRACON
13:45 40.8333 -73.8167 169° South 294 338 9,500 1,560 Climbing New York TRACON
13:46 40.7333 -73.8000 173° South 330 380 11,200 1,200 Climbing New York TRACON
13:47 40.6500 -73.7667 163° South 319 367 12,000 300 Climbing New York TRACON
13:49 40.5400 -73.6139 133° Southeast 395 455 12,100 1,080 Climbing New York Center
13:50 40.4700 -73.4883 126° Southeast 388 447 14,800 1,980 Climbing New York Center
13:51 40.4097 -73.3878 128° Southeast 393 452 16,100 1,860 Climbing New York Center
13:52 40.3269 -73.2647 131° Southeast 402 463 18,500 2,400 Climbing New York Center
13:53 40.2481 -73.1558 133° Southeast 407 468 21,000 2,400 Climbing New York Center
13:54 40.1650 -73.0417 134° Southeast 412 474 23,400 2,340 Climbing New York Center
13:55 40.0775 -72.9222 134° Southeast 429 494 25,800 2,220 Climbing New York Center
13:56 39.9983 -72.8139 134° Southeast 450 518 27,900 1,920 Climbing New York Center
13:57 39.9086 -72.6869 133° Southeast 461 531 29,600 2,400 Climbing New York Center
13:58 39.8189 -72.5656 134° Southeast 461 531 32,700 2,820 Climbing New York Center
13:59 39.7311 -72.4472 134° Southeast 456 525 35,400 1,860 Climbing New York Center
14:00 39.6450 -72.3344 135° Southeast 451 519 36,500 1,680 Climbing New York Center
14:01 39.5592 -72.2167 133° Southeast 451 519 38,800 1,680 Climbing New York Center
14:02 39.4769 -72.1047 134° Southeast 439 505 40,000 1,020 Climbing New York Center
14:03 39.3928 -71.9903 134° Southeast 439 505 40,900 480 Climbing New York Center
14:04 39.3044 -71.8733 134° Southeast 439 505 41,000  Climbing New York Center
14:05 39.2139 -71.7514 134° Southeast 444 511 41,000  Level New York Center
14:06 39.1231 -71.6322 134° Southeast 460 529 41,000  Level New York Center
14:07 39.0322 -71.5161 135° Southeast 460 529 41,000  Level New York Center
14:08 38.9433 -71.3978 134° Southeast 460 529 41,000  Level New York Center
14:09 38.8500 -71.2850 137° Southeast 460 529 41,000  Level New York Center
14:10 38.7650 -71.1644 132° Southeast 460 529 41,000  Level New York Center
14:11 38.6758 -71.0469 134° Southeast 460 529 41,000  Level New York Center
14:12 38.5842 -70.9347 136° Southeast 460 529 41,000  Level New York Center
14:13 38.4967 -70.8125 132° Southeast 455 524 41,000  Level New York Center
14:14 38.4050 -70.7039 137° Southeast 456 525 41,000  Level New York Center
14:15 38.3194 -70.5847 132° Southeast 456 525 41,000  Level New York Center
14:16 38.2297 -70.4764 136° Southeast 449 517 41,000  Level New York Center
14:17 38.1397 -70.3764 139° Southeast 442 509 41,000  Level New York Center
14:18 38.0558 -70.2608 133° Southeast 442 509 41,000  Level New York Center
14:19 37.9781 -70.1322 127° Southeast 442 509 41,000  Level New York Center
14:21 37.8090 -69.9119 133° Southeast  Level FlightAware Approximate
14:28 37.2066 -69.1181 133° Southeast  Level FlightAware Approximate
14:29 37.1202 -69.0057 134° Southeast  Level FlightAware Approximate
14:30 37.0336 -68.8936 134° Southeast  Level FlightAware Approximate
14:31 36.9469 -68.7818 134° Southeast  Level FlightAware Approximate
14:32 36.8605 -68.6697 133° Southeast  Level FlightAware Approximate
14:33 36.7749 -68.5567 133° Southeast  Level FlightAware Approximate
14:34 36.6893 -68.4440 133° Southeast  Level FlightAware Approximate
14:35 36.6035 -68.3315 134° Southeast  Level FlightAware Approximate
14:36 36.5110 -68.2284 142° Southeast  Level FlightAware Approximate
14:36 36.5667 -68.2833 142° Southeast 429 494 41,000  Level New York Oceanic (ODAPS)
14:37 36.4134 -68.1324 142° Southeast  Level FlightAware Approximate
14:38 36.3157 -68.0366 142° Southeast  Level FlightAware Approximate
14:39 36.2179 -67.9410 142° Southeast  Level FlightAware Approximate
14:40 36.1201 -67.8456 142° Southeast  Level FlightAware Approximate
14:41 36.0221 -67.7505 142° Southeast  Level FlightAware Approximate
14:42 35.9241 -67.6557 142° Southeast  Level FlightAware Approximate
14:43 35.7194 -67.4664 142° Southeast 429 494 41,000  Level FlightAware Transoceanic
14:44 35.6249 -67.3767 142° Southeast 429 494 41,000  Level FlightAware Transoceanic
14:45 35.5303 -67.2872 142° Southeast 429 494 41,000  Level FlightAware Transoceanic
14:46 35.4357 -67.1979 142° Southeast 429 494 41,000  Level FlightAware Transoceanic
14:47 35.3410 -67.1089 143° Southeast 429 494 41,000  Level FlightAware Transoceanic
14:48 35.2463 -67.0200 143° Southeast 429 494 41,000  Level FlightAware Transoceanic
14:49 35.1515 -66.9314 143° Southeast 429 494 41,000  Level FlightAware Transoceanic
14:50 35.0566 -66.8429 143° Southeast 429 494 41,000  Level FlightAware Transoceanic
14:51 34.9617 -66.7547 143° Southeast 429 494 41,000  Level FlightAware Transoceanic
14:52 34.8667 -66.6667 159° South 429 494 41,000  Level FlightAware Transoceanic
14:52 34.8667 -66.6667 159° South 456 525 41,000  Level New York Oceanic (ODAPS)
14:53 34.7476 -66.6124 160° South 429 494 41,000  Level FlightAware Transoceanic
14:54 34.6285 -66.5583 160° South 429 494 41,000  Level FlightAware Transoceanic
14:55 34.5094 -66.5043 160° South 429 494 41,000  Level FlightAware Transoceanic
14:56 34.3902 -66.4505 160° South 429 494 41,000  Level FlightAware Transoceanic
14:57 34.2710 -66.3969 160° South 429 494 41,000  Level FlightAware Transoceanic
14:58 34.1518 -66.3434 160° South 456 525 41,000  Level FlightAware Transoceanic
14:59 34.0326 -66.2901 160° South 456 525 41,000  Level FlightAware Transoceanic
15:00 33.9134 -66.2369 160° South 456 525 41,000  Level FlightAware Transoceanic
15:01 33.7941 -66.1838 160° South 456 525 41,000  Level FlightAware Transoceanic
15:02 33.6748 -66.1309 160° South 456 525 41,000  Level FlightAware Transoceanic
15:03 33.5555 -66.0782 160° South 456 525 41,000  Level FlightAware Transoceanic
15:04 33.4362 -66.0256 160° South 456 525 41,000  Level FlightAware Transoceanic
15:05 33.3168 -65.9731 160° South 456 525 41,000  Level FlightAware Transoceanic
15:06 33.1974 -65.9208 160° South 456 525 41,000  Level FlightAware Transoceanic
15:07 33.0780 -65.8686 160° South 456 525 41,000  Level FlightAware Transoceanic
15:08 32.9586 -65.8166 160° South 456 525 41,000  Level FlightAware Transoceanic
15:09 32.8392 -65.7647 160° South 456 525 41,000  Level FlightAware Transoceanic
15:10 32.7197 -65.7129 160° South 456 525 41,000  Level FlightAware Transoceanic
15:11 32.6002 -65.6613 160° South 456 525 41,000  Level FlightAware Transoceanic
15:12 32.4807 -65.6098 160° South 456 525 41,000  Level FlightAware Transoceanic
15:13 32.3612 -65.5585 160° South 456 525 41,000  Level FlightAware Transoceanic
15:14 32.2417 -65.5073 160° South 456 525 41,000  Level FlightAware Transoceanic
15:15 32.1221 -65.4562 160° South 456 525 41,000  Level FlightAware Transoceanic
15:16 32.0025 -65.4053 160° South 456 525 41,000  Level FlightAware Transoceanic
15:17 31.8829 -65.3545 160° South 456 525 41,000  Level FlightAware Transoceanic
15:18 31.7633 -65.3038 160° South 456 525 41,000  Level FlightAware Transoceanic
15:19 31.6436 -65.2533 160° South 456 525 41,000  Level FlightAware Transoceanic
15:20 31.5239 -65.2029 160° South 456 525 41,000  Level FlightAware Transoceanic
15:21 31.4042 -65.1526 160° South 456 525 41,000  Level FlightAware Transoceanic
15:22 31.2845 -65.1024 160° South 456 525 41,000  Level FlightAware Transoceanic
15:23 31.1648 -65.0524 160° South 456 525 41,000  Level FlightAware Transoceanic
15:24 31.0451 -65.0025 160° South 456 525 41,000  Level FlightAware Transoceanic
15:25 30.9253 -64.9527 160° South 456 525 41,000  Level FlightAware Transoceanic
15:26 30.8055 -64.9031 160° South 456 525 41,000  Level FlightAware Transoceanic
15:27 30.6857 -64.8536 160° South 456 525 41,000  Level FlightAware Transoceanic
15:28 30.5659 -64.8042 160° South 456 525 41,000  Level FlightAware Transoceanic
15:29 30.4461 -64.7549 161° South 456 525 41,000  Level FlightAware Transoceanic
15:30 30.3262 -64.7057 161° South 456 525 41,000  Level FlightAware Transoceanic
15:31 30.2063 -64.6567 161° South 456 525 41,000  Level FlightAware Transoceanic
15:32 30.0864 -64.6077 161° South 456 525 41,000  Level FlightAware Transoceanic
15:33 29.9665 -64.5589 161° South 456 525 41,000  Level FlightAware Transoceanic
15:34 29.8466 -64.5102 161° South 456 525 41,000  Level FlightAware Transoceanic
15:35 29.7266 -64.4617 161° South 456 525 41,000  Level FlightAware Transoceanic
15:36 29.6066 -64.4132 161° South 456 525 41,000  Level FlightAware Transoceanic
15:37 29.4867 -64.3649 161° South 456 525 41,000  Level FlightAware Transoceanic
15:38 29.3667 -64.3167 169° South 456 525 41,000  Level FlightAware Transoceanic
15:39 29.2393 -64.2877 169° South 456 525 41,000  Level FlightAware Transoceanic
15:40 29.1118 -64.2588 169° South 456 525 41,000  Level FlightAware Transoceanic
15:41 28.9844 -64.2299 169° South 456 525 41,000  Level FlightAware Transoceanic
15:42 28.8570 -64.2011 169° South 456 525 41,000  Level FlightAware Transoceanic
15:43 28.7295 -64.1724 169° South 456 525 41,000  Level FlightAware Transoceanic
15:44 28.6021 -64.1438 169° South 456 525 41,000  Level FlightAware Transoceanic
15:45 28.4747 -64.1152 169° South 456 525 41,000  Level FlightAware Transoceanic
15:45 29.3667 -64.3167 169° South 466 536 41,000  Level New York Oceanic (ODAPS)
15:46 28.3472 -64.0867 169° South 456 525 41,000  Level FlightAware Transoceanic
15:47 28.2197 -64.0583 169° South 456 525 41,000  Level FlightAware Transoceanic
15:48 28.0923 -64.0300 169° South 456 525 41,000  Level FlightAware Transoceanic
15:49 27.9648 -64.0016 169° South 456 525 41,000  Level FlightAware Transoceanic
15:50 27.8373 -63.9734 169° South 456 525 41,000  Level FlightAware Transoceanic
15:51 27.7099 -63.9453 169° South 456 525 41,000  Level FlightAware Transoceanic
15:52 27.4549 -63.8891 169° South 466 536 41,000  Level FlightAware Transoceanic
15:53 27.3274 -63.8612 169° South 466 536 41,000  Level FlightAware Transoceanic
15:54 27.1999 -63.8333 169° South 466 536 41,000  Level FlightAware Transoceanic
15:55 27.0724 -63.8054 169° South 466 536 41,000  Level FlightAware Transoceanic
15:56 26.9448 -63.7777 169° South 466 536 41,000  Level FlightAware Transoceanic
15:57 26.8173 -63.7500 169° South 466 536 41,000  Level FlightAware Transoceanic
15:58 26.6898 -63.7223 169° South 466 536 41,000  Level FlightAware Transoceanic
15:59 26.5623 -63.6947 169° South 466 536 41,000  Level FlightAware Transoceanic
16:00 26.4347 -63.6672 169° South 466 536 41,000  Level FlightAware Transoceanic
16:01 26.3072 -63.6397 169° South 466 536 41,000  Level FlightAware Transoceanic
16:02 26.1796 -63.6123 169° South 466 536 41,000  Level FlightAware Transoceanic
16:03 26.0521 -63.5850 169° South 466 536 41,000  Level FlightAware Transoceanic
16:04 25.9245 -63.5577 169° South 466 536 41,000  Level FlightAware Transoceanic
16:05 25.7970 -63.5305 169° South 466 536 41,000  Level FlightAware Transoceanic
16:06 25.6694 -63.5033 169° South 466 536 41,000  Level FlightAware Transoceanic
16:07 25.5418 -63.4762 169° South 466 536 41,000  Level FlightAware Transoceanic
16:08 25.4142 -63.4492 169° South 466 536 41,000  Level FlightAware Transoceanic
16:09 25.2867 -63.4222 169° South 466 536 41,000  Level FlightAware Transoceanic
16:10 25.1591 -63.3952 169° South 466 536 41,000  Level FlightAware Transoceanic
16:11 25.0315 -63.3683 169° South 466 536 41,000  Level FlightAware Transoceanic
16:12 24.9039 -63.3415 169° South 466 536 41,000  Level FlightAware Transoceanic
16:13 24.7763 -63.3147 169° South 466 536 41,000  Level FlightAware Transoceanic
16:14 24.6487 -63.2880 169° South 466 536 41,000  Level FlightAware Transoceanic
16:15 24.5211 -63.2614 169° South 466 536 41,000  Level FlightAware Transoceanic
16:16 24.3934 -63.2348 169° South 466 536 41,000  Level FlightAware Transoceanic
16:17 24.2658 -63.2082 169° South 466 536 41,000  Level FlightAware Transoceanic
16:18 24.1382 -63.1817 169° South 466 536 41,000  Level FlightAware Transoceanic
16:19 24.0106 -63.1553 169° South 466 536 41,000  Level FlightAware Transoceanic
16:20 23.8829 -63.1289 169° South 466 536 41,000  Level FlightAware Transoceanic
16:21 23.7553 -63.1025 169° South 466 536 41,000  Level FlightAware Transoceanic
16:22 23.6276 -63.0762 169° South 466 536 41,000  Level FlightAware Transoceanic
16:23 23.5000 -63.0500 169° South 466 536 41,000  Level FlightAware Transoceanic
16:24 23.3711 -63.0234 169° South 466 536 41,000  Level FlightAware Transoceanic
16:25 23.2421 -62.9968 169° South 466 536 41,000  Level FlightAware Transoceanic
16:26 23.1132 -62.9703 169° South 466 536 41,000  Level FlightAware Transoceanic
16:27 22.9842 -62.9438 169° South 466 536 41,000  Level FlightAware Transoceanic
16:27 23.5000 -63.0500 169° South 490 564 41,000  Level New York Oceanic (ODAPS)
16:28 22.8553 -62.9174 169° South 466 536 41,000  Level FlightAware Transoceanic
16:29 22.7263 -62.8910 169° South 466 536 41,000  Level FlightAware Transoceanic
16:30 22.5973 -62.8647 169° South 466 536 41,000  Level FlightAware Transoceanic
16:31 22.4684 -62.8384 169° South 466 536 41,000  Level FlightAware Transoceanic
16:32 22.3394 -62.8122 169° South 466 536 41,000  Level FlightAware Transoceanic
16:33 22.0169 -62.7469 169° South 490 564 41,000  Level FlightAware Transoceanic
16:34 21.8821 -62.7196 169° South 490 564 41,000  Level FlightAware Transoceanic
16:35 21.7472 -62.6924 169° South 490 564 41,000  Level FlightAware Transoceanic
16:36 21.6124 -62.6653 169° South 490 564 41,000  Level FlightAware Transoceanic
16:37 21.4775 -62.6382 169° South 490 564 41,000  Level FlightAware Transoceanic
16:38 21.3426 -62.6112 169° South 490 564 41,000  Level FlightAware Transoceanic
16:39 21.2078 -62.5842 169° South 490 564 41,000  Level FlightAware Transoceanic
16:40 21.0729 -62.5573 169° South 490 564 41,000  Level FlightAware Transoceanic
16:41 20.9380 -62.5304 169° South 490 564 41,000  Level FlightAware Transoceanic
16:42 20.8031 -62.5035 169° South 490 564 41,000  Level FlightAware Transoceanic
16:43 20.6682 -62.4767 169° South 490 564 41,000  Level FlightAware Transoceanic
16:44 20.5333 -62.4500 170° South 490 564 41,000  Level FlightAware Transoceanic
16:45 20.4000 -62.4242 170° South 490 564 41,000  Level FlightAware Transoceanic
16:45 20.4333 -62.4333 170° South 480 552 41,000  Level San Juan Center
16:46 20.2667 -62.3984 170° South 490 564 41,000  Level FlightAware Transoceanic
16:46 20.3000 -62.4000 167° South 480 552 41,000  Level San Juan Center
16:47 20.1334 -62.3727 170° South 490 564 41,000  Level FlightAware Transoceanic
16:47 20.1667 -62.3833 173° South 470 541 41,000  Level San Juan Center
16:48 20.0001 -62.3470 170° South 490 564 41,000  Level FlightAware Transoceanic
16:48 20.0333 -62.3500 167° South 470 541 41,000  Level San Juan Center
16:49 19.8668 -62.3213 170° South 490 564 41,000  Level FlightAware Transoceanic
16:49 19.9167 -62.3333 172° South 470 541 41,000  Level San Juan Center
16:50 19.7335 -62.2957 170° South 490 564 41,000  Level FlightAware Transoceanic
16:50 19.7833 -62.3000 167° South 480 552 41,000  Level San Juan Center
16:51 19.6001 -62.2702 170° South 490 564 41,000  Level FlightAware Transoceanic
16:51 19.6500 -62.2833 173° South 470 541 41,000  Level San Juan Center
16:52 19.5167 -62.2500 167° South 480 552 41,000  Level San Juan Center
16:53 19.3833 -62.2333 173° South 470 541 41,000  Level San Juan Center
16:54 19.2667 -62.2000 165° South 460 529 41,000  Level San Juan Center
16:55 19.1333 -62.1833 173° South 470 541 41,000  Level San Juan Center
16:56 19.0000 -62.1500 167° South 470 541 41,000  Level San Juan Center
16:57 18.8667 -62.1333 173° South 480 552 41,000  Level San Juan Center
16:58 18.7333 -62.1000 167° South 480 552 41,000  Level San Juan Center
16:59 18.6000 -62.0667 167° South 480 552 41,000  Level San Juan Center
17:00 18.4667 -62.0500 173° South 480 552 41,000  Level San Juan Center
17:01 18.3333 -62.0167 167° South 480 552 41,000  Level San Juan Center
17:02 18.2000 -62.0000 173° South 490 564 41,000  Level San Juan Center
17:03 18.0667 -61.9667 167° South 480 552 41,000  Level San Juan Center
17:04 17.9333 -61.9333 167° South 500 575 41,000  Level San Juan Center
17:05 17.8167 -61.8667 151° Southeast 490 564 41,000  Level San Juan Center
17:06 17.7000 -61.8000 151° Southeast 490 564 41,000  Level San Juan Center
17:08 17.5542 -61.8000 180° South  Level FlightAware Approximate
17:15 16.7330 -61.5665 151° Southeast  Level FlightAware Approximate
17:16 16.6238 -61.5030 151° Southeast  Level FlightAware Approximate
17:17 16.5146 -61.4396 151° Southeast  Level FlightAware Approximate
17:18 16.4053 -61.3762 151° Southeast  Level FlightAware Approximate
17:19 16.2960 -61.3129 151° Southeast  Level FlightAware Approximate
17:20 16.1868 -61.2497 151° Southeast  Level FlightAware Approximate
17:21 16.0775 -61.1866 151° Southeast  Level FlightAware Approximate
17:22 15.9682 -61.1235 151° Southeast  Level FlightAware Approximate
17:23 15.8588 -61.0605 151° Southeast  Level FlightAware Approximate
17:24 15.7494 -60.9976 151° Southeast  Level FlightAware Approximate
17:25 15.6403 -60.9344 150° Southeast  Level FlightAware Approximate
17:26 15.5316 -60.8701 150° Southeast  Level FlightAware Approximate
17:27 15.4230 -60.8059 150° Southeast  Level FlightAware Approximate
17:28 15.3144 -60.7418 150° Southeast  Level FlightAware Approximate
17:29 15.2061 -60.6770 150° Southeast  Level FlightAware Approximate
17:30 15.0959 -60.6163 156° South  Level FlightAware Approximate
17:31 14.9815 -60.5643 156° South  Level FlightAware Approximate
17:32 14.8728 -60.5008 148° Southeast  Level FlightAware Approximate
17:33 14.7663 -60.4331 150° Southeast  Level FlightAware Approximate
17:34 14.6572 -60.3702 154° Southeast  Level FlightAware Approximate
17:35 14.5470 -60.3093 151° Southeast  Level FlightAware Approximate
17:36 14.4381 -60.2458 151° Southeast  Level FlightAware Approximate
17:37 14.3268 -60.1873 152° Southeast  Level FlightAware Approximate
17:38 14.2163 -60.1270 152° Southeast  Level FlightAware Approximate
17:39 14.1067 -60.0650 150° Southeast  Level FlightAware Approximate
17:40 13.9979 -60.0015 150° Southeast  Level FlightAware Approximate
17:41 13.8891 -59.9380 150° Southeast  Level FlightAware Approximate
17:42 13.7803 -59.8746 150° Southeast  Level FlightAware Approximate
17:43 13.6705 -59.8132 152° Southeast  Level FlightAware Approximate
17:44 13.5603 -59.7526 152° Southeast  Level FlightAware Approximate
17:45 13.4498 -59.6923 152° Southeast  Level FlightAware Approximate
17:46 13.3398 -59.6314 152° Southeast  Level FlightAware Approximate
17:47 13.2287 -59.5727 154° Southeast  Level FlightAware Approximate
17:48 13.1205 -59.5103 154° Southeast  Level FlightAware Approximate
17:49 13.0746 -59.4925 90° East  Level Estimated
17:50 13.0746 -59.4925 90° East  Level Estimated
17:51 13.0746 -59.4925 90° East  Level Estimated
17:52 13.0746 -59.4925 90° East  Level Estimated
17:53 13.0746 -59.4925 90° East  Level Estimated
17:54 13.0746 -59.4925 90° East  Level Estimated
17:55 13.0746 -59.4925 90° East  Level Estimated
17:56 13.0746 -59.4925 90° East  Level Estimated
17:57 13.0746 -59.4925 90° East  Level Estimated
17:58 13.0746 -59.4925 90° East  Level Estimated
17:59 13.0746 -59.4925 90° East  Level Estimated
18:00 13.0746 -59.4925 90° East  Level Estimated
18:01 13.0746 -59.4925 90° East  Level Estimated
18:02 13.0746 -59.4925 90° East  Level Estimated
18:03 13.0746 -59.4925 90° East  Level Estimated
18:04 13.0746 -59.4925 90° East  Level Estimated
18:05 13.0746 -59.4925 90° East  Level Estimated
18:06 13.0746 -59.4925 90° East  Level Estimated
18:07 13.0746 -59.4925 90° East  Level Estimated
18:08 13.0746 -59.4925 90° East  Level Estimated
18:09 13.0746 -59.4925 90° East  Level Estimated